Terminal Aerodrome Forecast
Issued by NWS Dodge City, KS

Home | Current Version | Previous Version | Text Only | Print | Product List | Glossary On
Versions: 1 2 3 4 5 6 7 8 9 10 11 12 13 14 15 16 17 18 19 20 21 22 23 24 25 26 27 28 29 30 31 32 33 34 35 36 37 38 39 40 41 42 43 44 45 46 47 48
000
FTUS43 KDDC 011453 AAB
TAFDDC
TAF AMD
KDDC 011453Z 0115/0212 VRB04KT 2SM BR OVC012
     FM011700 VRB04KT 4SM BR OVC015
     FM012000 34006KT P6SM OVC015=

USA.gov is the U.S. government's official web portal to all federal, state and local government web resources and services.